Home   Weather   Reno   Past weeks

Flag for USA Past Weather in Reno, Nevada, USA — Yesterday and Last 2 Weeks

Now
29 °F

Partly cloudy.


Feels Like: 29 °F
Forecast: 22 / 34 °F
Wind: No wind

Location: Reno Tahoe International Airport

Current Time: Jan 23, 2017 at 2:58:59 am

Latest Report: Jan 23, 2017 at 1:55 am


Visibility: 7 mi

Pressure: 29.57 "Hg (24.88 "Hg at 1372m altitude)

Humidity: 96%

Dew Point: 28 °F

Location of RenoLocation

Past Weather in Reno — Graph

°F

Reno Temperature Yesterday

Maximum temperature yesterday: 41 °F (at 1:55 pm)
Minimum temperature yesterday: 29 °F (at 10:55 pm)
Average temperature yesterday: 34 °F

High & Low Weather Summary for the Past Weeks

 TemperatureHumidityPressure
High48 °F (Jan 8, 12:55 pm)100% (Jan 8, 11:55 am)30.40 "Hg (Jan 8, 11:55 am)
Low23 °F (Jan 16, 5:55 am)34% (Jan 9, 1:55 pm)29.13 "Hg (Jan 20, 2:55 pm)
Average35 °F78%29.87 "Hg
* Reported Jan 8 1:55 am — Jan 23 1:55 am, Reno, Weather by CustomWeather, © 2017

Note: Actual official high and low records may vary slightly from our data, if they occured in-between our weather recording intervals... More about our weather records

Advertising

Reno Weather History for the Previous 24 Hours

Scroll right to see more
 ConditionsComfort  
Time TempWeatherWind HumidityBarometerVisibility
1:55 am
Mon, Jan 23
29 °FPartly cloudy.No wind96%29.57 "Hg7 mi
12:55 am30 °FPassing clouds.5 mph92%29.57 "Hg9 mi
11:55 pm
Sun, Jan 22
31 °FLight snow. Mostly cloudy.5 mph92%29.58 "Hg3 mi
11:38 pm31 °FLight snow. Mostly cloudy.No wind92%29.57 "Hg2 mi
10:55 pm29 °FLight snow. Mostly cloudy.3 mph96%29.58 "Hg3 mi
10:27 pm31 °FLight snow. Mostly cloudy.3 mph92%29.58 "Hg2 mi
9:55 pm31 °FLight snow. Overcast.No wind96%29.58 "Hg2 mi
8:55 pm31 °FLight snow. Overcast.No wind96%29.57 "Hg2 mi
8:23 pm31 °FLight snow. Ice fog.No wind96%29.58 "Hg1 mi
7:55 pm31 °FLight snow. Ice fog.No wind96%29.59 "Hg1 mi
7:34 pm31 °FLight snow. Mostly cloudy.No wind92%29.57 "Hg1 mi
6:55 pm31 °FLight snow. Mostly cloudy.9 mph96%29.57 "Hg2 mi
6:37 pm31 °FLight snow. Ice fog.7 mph96%29.58 "Hg1 mi
6:06 pm31 °FSnow. Ice fog.7 mph96%29.59 "Hg1 mi
5:16 pm32 °FSnow. Low clouds.3 mph96%29.59 "Hg1 mi
4:55 pm33 °FSnow. Overcast.6 mph88%29.59 "Hg1 mi
3:55 pm36 °FLight snow. Cloudy.13 mph75%29.60 "Hg4 mi
2:55 pm37 °FMostly cloudy.10 mph76%29.61 "Hg10 mi
1:55 pm41 °FBroken clouds.6 mph67%29.59 "Hg10 mi
12:55 pm40 °FBroken clouds.8 mph77%29.60 "Hg10 mi
11:55 am37 °FLight rain. Cloudy.14 mph86%29.64 "Hg10 mi
10:55 am40 °FLight rain. Mostly cloudy.9 mph80%29.63 "Hg10 mi
9:55 am39 °FMostly cloudy.9 mph82%29.62 "Hg10 mi
9:36 am37 °FCloudy.12 mph86%29.62 "Hg7 mi
8:55 am37 °FLight rain. Fog.5 mph89%29.59 "Hg4 mi
8:11 am35 °FLight rain. Fog.No wind92%29.59 "Hg4 mi
7:55 am34 °FLight rain. Fog.No wind97%29.58 "Hg2 mi
7:14 am33 °FLight snow. Fog.5 mph96%29.57 "Hg2 mi
6:55 am33 °FLight snow. Fog.3 mph96%29.56 "Hg1 mi
5:55 am33 °FLight snow. Fog.5 mph96%29.57 "Hg1 mi
4:55 am32 °FLight snow. Low clouds.3 mph96%29.59 "Hg1 mi
4:24 am32 °FSnow. Low clouds.No wind96%29.62 "Hg1 mi
3:55 am32 °FLight snow. Ice fog.No wind100%29.62 "Hg1 mi
3:04 am32 °FLight snow. Ice fog.No wind96%29.66 "Hg1 mi
2:11 am32 °FLight snow. Ice fog.No wind96%29.70 "Hg1 mi
Weather by CustomWeather, © 2017

See weather overviewHow to use our weather pages